Tracking 35331 objects as of 15-Sep-2026
HD Live streaming from Space Station
objects crossing your sky now

CZ-4C DEB


CZ-4C DEB is no longer on orbit


NORAD ID: 44211
Int'l Code: 2019-024E
Launch date: April 29, 2019
Source: People's Republic of China (PRC)
Launch site: Taiyaun Space Center, China (TSC)
Decay date: 2023-07-22

Note: This is SATELLITE DEBRIS
Your satellite tracking list
Your tracking list is empty




NASA's NSSDC Master Catalog

Two Line Element Set (TLE):
1 44211U 19024E   23201.05039257  .04806978  24572-5  16745-2 0  9999
2 44211  97.3862 229.2167 0013699 232.5174 127.4872 16.25042807235365
Source of the keplerian elements: AFSPC